[[{"header":{"parameterUnit":"m.s-1","parameterCategory":1,"la1":30.2991,"la2":30.254,"lo1":-89.0895,"lo2":-89.0444,"dy":0.0017,"dx":0.0017,"nx":28,"ny":28,"refTime":"2024-08-01T21:00:00:Z","depth":0,"parameterNumber":2,"parameterNumberName":"U-component_of_WINDS"},"data":[0,0,0,0,0,0,0,0,0,0,0,0,0,0,0,0,0,0,0,0,0,0,0,0,0,0,0,0,0,0,0,0,0,0,0,0,0,0,0,0,0,0,0,0,0,0,0,0,0,0,0,0,0,0,0,0,0,0,2.7452,2.7452,0,2.7524,2.7525,2.7526,2.7503,2.7501,2.75,2.7498,2.7576,2.7579,2.7583,0,0,0,0,0,0,0,0,0,0,0,0,0,2.7298,2.7301,2.7452,2.7452,2.7453,2.7524,2.7525,2.7526,2.7503,2.7501,2.75,2.7498,2.7575,2.7579,2.7583,0,0,0,0,0,0,0,0,0,0,0,0,0,2.7367,2.7302,2.7451,2.745,2.7451,2.7524,2.7525,2.7526,2.7504,2.7501,2.7499,2.7497,2.7573,2.7578,2.7584,2.7662,0,0,2.76,2.7602,0,0,0,0,0,0,0,0,2.7363,2.7373,2.745,2.7451,2.7452,2.7502,2.7499,2.7572,2.7504,2.7484,2.7498,2.7496,2.7553,2.756,2.7579,2.7666,2.7669,2.76,2.7603,2.7605,2.7607,0,0,0,0,0,0,0,2.7359,2.737,2.748,2.7451,2.7452,2.7448,2.7455,2.7513,2.7531,2.7485,2.7484,2.7493,2.7553,2.7574,2.7581,2.767,2.76,2.7605,2.7608,2.761,2.783,2.7832,0,0,0,0,0,0,2.7353,2.7366,2.7478,2.7482,2.7401,2.7453,2.7461,2.7488,2.753,2.7534,2.7495,2.7491,2.7566,2.7574,2.7583,2.7681,2.7605,2.761,2.7613,2.7827,2.783,2.7833,0,0,0,0,0,0,2.735,2.7363,2.7475,2.7424,2.7438,2.7458,2.7489,2.7491,2.7511,2.7537,2.754,2.7512,2.7565,2.7576,2.7643,2.7683,2.7613,2.7617,2.7824,2.7828,2.7832,2.7876,0,0,0,0,0,0,2.7345,2.7362,2.7391,2.7425,2.7441,2.7533,2.7491,2.7494,2.752,2.7517,2.7554,2.7558,2.7564,2.7636,2.7649,2.7689,2.7622,2.7821,2.7826,2.7831,2.7871,2.7881,2.7889,0,0,0,0,0,2.734,2.74,2.7392,2.7406,2.7477,2.7535,2.7544,2.7549,2.7523,2.7554,2.7571,2.7557,2.7676,2.7643,2.7657,2.77,2.7818,2.7824,2.783,2.7867,2.7879,2.7889,0,0,0,0,0,0,2.7371,2.7404,2.7396,2.7469,2.7499,2.7531,2.7569,2.7561,2.76,2.7595,2.7599,2.7608,2.7678,2.7695,2.7657,2.778,2.7744,2.7753,2.7767,2.7778,2.7787,2.7783,2.7626,0,0,0,0,0,2.7386,2.7429,2.7457,2.7518,2.7534,2.7549,2.7575,2.7575,2.7607,2.762,2.7642,2.7675,2.772,2.775,2.7792,2.7873,2.7882,2.7909,2.7919,2.7926,2.7935,2.7982,2.7995,2.7853,2.7853,2.7853,0,0,2.7418,2.7442,2.7469,2.7525,2.7549,2.7596,2.756,2.761,2.7646,2.7628,2.7694,2.7711,2.7748,2.7824,2.7858,2.784,2.7976,2.7934,2.7939,2.7944,2.799,2.8003,2.8015,2.7857,2.7857,2.7856,0,0,2.7501,2.7522,2.7577,2.7602,2.7638,2.7648,2.7662,2.7695,2.7706,2.7772,2.7761,2.7804,2.788,2.7908,2.7933,2.8029,2.8019,2.8042,2.8091,2.8137,2.8149,2.8159,2.8196,2.8209,2.805,2.8051,2.8051,0,2.7537,2.7606,2.7607,2.7659,2.7686,2.7671,2.7729,2.7753,2.7802,2.7822,2.7801,2.7899,2.7922,2.8006,2.803,2.8048,2.8066,2.8039,2.8147,2.8157,2.8166,2.8202,2.8216,2.8053,2.8053,2.8053,2.8053,0,2.765,2.7698,2.7738,2.7786,2.7816,2.7871,2.7883,2.7914,2.7912,2.7925,2.7994,2.8022,2.8072,2.8091,2.809,2.8176,2.8164,2.8145,2.8109,2.8183,2.8216,2.823,2.8058,2.8057,2.8056,2.8055,0,0,2.7755,2.7803,2.7818,2.7841,2.7881,2.7919,2.7974,2.8022,2.805,2.8085,2.8133,2.8199,2.8183,2.821,2.8212,2.8252,2.8331,2.8228,2.8229,2.8249,2.8431,2.8447,2.8462,2.8323,2.8326,2.8328,2.8429,0,2.7843,2.7939,2.7943,2.8031,2.8078,2.8066,2.8114,2.8145,2.8159,2.8201,2.8217,2.8265,2.8238,2.8255,2.8294,2.8313,2.8368,2.8305,2.8371,2.8374,2.8365,2.848,2.8496,2.859,2.8441,2.8444,2.8445,0,2.796,2.7998,2.8091,2.8127,2.8146,2.8189,2.8236,2.8275,2.8311,2.8319,2.8351,2.8347,2.8406,2.8366,2.8449,2.8407,2.8434,2.8448,2.8452,2.846,2.8416,2.8494,2.8619,2.8635,2.8466,2.8464,2.8462,0,2.8031,2.8106,2.8172,2.8191,2.8234,2.8265,2.8284,2.8318,2.8347,2.8388,2.8408,2.8454,2.8481,2.8518,2.8529,2.8498,2.8613,2.8573,2.8623,2.8623,2.865,2.8648,2.8784,2.8663,2.8662,2.8662,2.8662,0,2.8131,2.819,2.8205,2.8246,2.8312,2.8316,2.8382,2.8399,2.8429,2.8475,2.8467,2.851,2.852,2.8566,2.8575,2.8644,2.8655,2.8665,2.8667,2.8668,2.8667,2.8687,2.8682,2.8666,2.8665,2.8664,2.8664,0,2.8223,2.8235,2.8307,2.8342,2.8352,2.8399,2.843,2.847,2.8483,2.8542,2.8556,2.8577,2.8631,2.8644,2.8709,2.8715,2.8798,2.8792,2.8786,2.8787,2.8837,2.8833,2.8993,2.9016,2.8877,2.8878,2.8879,0,2.8288,2.8332,2.8372,2.8402,2.8423,2.847,2.8501,2.8508,2.854,2.8585,2.8621,2.8674,2.8717,2.8805,2.8827,2.8877,2.8875,2.8927,2.8882,2.8882,2.888,2.8878,2.8884,2.8937,2.8938,2.8939,2.894,0,2.8402,2.8407,2.845,2.8497,2.8533,2.857,2.8606,2.8631,2.8643,2.8681,2.8736,2.8769,2.8835,2.8889,2.894,2.8962,2.8955,2.8954,2.8969,2.8971,2.8967,2.8973,2.8812,2.8951,2.895,2.8949,2.8948,2.8948,2.8485,2.8525,2.856,2.861,2.8637,2.8671,2.8712,2.873,2.8776,2.883,2.8831,2.8892,2.893,2.8997,2.9022,2.9071,2.9055,2.9076,2.9082,2.9088,2.9094,2.8957,2.908,2.908,2.9079,2.9079,2.9079,0,2.8602,2.8624,2.8669,2.872,2.876,2.8747,2.8787,2.8821,2.8875,2.8909,2.8952,2.9017,2.907,2.9097,2.915,2.9184,2.9183,2.9198,2.9197,2.9203,2.9103,2.9086,2.9199,2.9199,2.9199,2.9199,2.9199,2.9199,2.8667,2.8736,2.8745,2.8828,2.885,2.8909,2.8933,2.8965,2.8993,2.9066,2.911,2.9126,2.9159,2.9215,2.9264,2.927,2.9292,2.931,2.9315,2.9222,2.921,2.9198,2.9183,2.9314,2.9314,2.9412,2.9413,2.9413]},{"header":{"parameterUnit":"m.s-1","parameterCategory":1,"la1":30.2991,"la2":30.254,"lo1":-89.0895,"lo2":-89.0444,"dy":0.0017,"dx":0.0017,"nx":28,"ny":28,"refTime":"2024-08-01T21:00:00:Z","depth":0,"parameterNumber":3,"parameterNumberName":"V-component_of_WINDS"},"data":[0,0,0,0,0,0,0,0,0,0,0,0,0,0,0,0,0,0,0,0,0,0,0,0,0,0,0,0,0,0,0,0,0,0,0,0,0,0,0,0,0,0,0,0,0,0,0,0,0,0,0,0,0,0,0,0,0,0,-1.4525,-1.4525,0,-1.4529,-1.4529,-1.4529,-1.4548,-1.4549,-1.4549,-1.455,-1.4553,-1.4552,-1.4552,0,0,0,0,0,0,0,0,0,0,0,0,0,-1.4535,-1.4535,-1.4525,-1.4525,-1.4525,-1.4529,-1.4529,-1.4529,-1.4548,-1.4549,-1.4549,-1.455,-1.4553,-1.4552,-1.4552,0,0,0,0,0,0,0,0,0,0,0,0,0,-1.4534,-1.4535,-1.4525,-1.4535,-1.4536,-1.4529,-1.4529,-1.4529,-1.4548,-1.4549,-1.455,-1.455,-1.4553,-1.4552,-1.4552,-1.4535,0,0,-1.455,-1.455,0,0,0,0,0,0,0,0,-1.4534,-1.4534,-1.4534,-1.4535,-1.4536,-1.4539,-1.4534,-1.4531,-1.4548,-1.4544,-1.455,-1.4551,-1.4547,-1.4547,-1.4547,-1.4535,-1.4535,-1.455,-1.455,-1.455,-1.4549,0,0,0,0,0,0,0,-1.4534,-1.4534,-1.4527,-1.4534,-1.4535,-1.454,-1.4541,-1.4533,-1.4541,-1.4544,-1.4545,-1.4546,-1.4548,-1.4547,-1.4547,-1.4535,-1.455,-1.455,-1.4549,-1.4549,-1.4512,-1.4511,0,0,0,0,0,0,-1.4533,-1.4534,-1.4526,-1.4527,-1.4537,-1.4539,-1.454,-1.4537,-1.4542,-1.4543,-1.4545,-1.4547,-1.4548,-1.4547,-1.4547,-1.4529,-1.455,-1.4549,-1.4549,-1.4512,-1.4511,-1.4511,0,0,0,0,0,0,-1.4533,-1.4532,-1.4526,-1.4531,-1.453,-1.4538,-1.4535,-1.4537,-1.4536,-1.4542,-1.4544,-1.4542,-1.4548,-1.4548,-1.4538,-1.4529,-1.4549,-1.4548,-1.4513,-1.4512,-1.4511,-1.4491,0,0,0,0,0,0,-1.4533,-1.4532,-1.4525,-1.453,-1.453,-1.4517,-1.4534,-1.4536,-1.4535,-1.4537,-1.454,-1.4542,-1.4549,-1.4539,-1.4538,-1.4528,-1.4548,-1.4514,-1.4513,-1.4511,-1.4492,-1.4489,-1.4486,0,0,0,0,0,-1.4533,-1.4519,-1.4525,-1.4524,-1.4522,-1.4516,-1.4516,-1.4525,-1.4534,-1.4528,-1.4532,-1.4541,-1.453,-1.4538,-1.4536,-1.4527,-1.4514,-1.4513,-1.4511,-1.4493,-1.449,-1.4486,0,0,0,0,0,0,-1.4511,-1.4519,-1.4526,-1.4512,-1.4514,-1.452,-1.4512,-1.452,-1.4519,-1.452,-1.4531,-1.4532,-1.4521,-1.4523,-1.4531,-1.4512,-1.4524,-1.4522,-1.4511,-1.4507,-1.4504,-1.4504,-1.4547,0,0,0,0,0,-1.4505,-1.45,-1.4507,-1.4495,-1.4495,-1.4503,-1.4501,-1.4508,-1.451,-1.451,-1.4514,-1.4515,-1.4512,-1.451,-1.4507,-1.4493,-1.4495,-1.4486,-1.4483,-1.448,-1.4479,-1.4473,-1.447,-1.4506,-1.4506,-1.4506,0,0,-1.4491,-1.4495,-1.4491,-1.449,-1.4492,-1.4487,-1.4503,-1.4497,-1.4494,-1.4509,-1.4501,-1.4504,-1.4506,-1.4494,-1.449,-1.4496,-1.447,-1.4479,-1.4477,-1.4476,-1.4471,-1.4468,-1.4465,-1.4505,-1.4505,-1.4505,0,0,-1.4465,-1.4466,-1.4457,-1.4459,-1.4462,-1.4468,-1.4466,-1.4471,-1.4474,-1.4466,-1.4478,-1.4474,-1.4468,-1.447,-1.447,-1.4446,-1.4455,-1.4445,-1.443,-1.4424,-1.4421,-1.4419,-1.4412,-1.4409,-1.4443,-1.4443,-1.4443,0,-1.4447,-1.4441,-1.4451,-1.4445,-1.4444,-1.4459,-1.445,-1.4451,-1.4453,-1.4453,-1.446,-1.4454,-1.4456,-1.4446,-1.4441,-1.444,-1.4438,-1.4444,-1.4421,-1.4419,-1.4417,-1.441,-1.4407,-1.4442,-1.4442,-1.4442,-1.4442,0,-1.442,-1.4415,-1.4407,-1.441,-1.4409,-1.4401,-1.4411,-1.4408,-1.4416,-1.4421,-1.4414,-1.4418,-1.4417,-1.4415,-1.4421,-1.4406,-1.441,-1.4419,-1.4432,-1.4412,-1.4406,-1.4403,-1.444,-1.4441,-1.4441,-1.4441,0,0,-1.4378,-1.4388,-1.4385,-1.4387,-1.4393,-1.4389,-1.4383,-1.4383,-1.4381,-1.4383,-1.4378,-1.4374,-1.4383,-1.4383,-1.439,-1.4385,-1.4368,-1.4394,-1.4395,-1.439,-1.4353,-1.4347,-1.4344,-1.4374,-1.4373,-1.4373,-1.4354,0,-1.4354,-1.4343,-1.4354,-1.4341,-1.4338,-1.4353,-1.4348,-1.4351,-1.4356,-1.4354,-1.436,-1.4358,-1.4368,-1.4369,-1.4365,-1.4371,-1.4361,-1.4372,-1.4371,-1.437,-1.437,-1.4341,-1.4334,-1.4315,-1.4351,-1.4351,-1.435,0,-1.4323,-1.4324,-1.4312,-1.432,-1.4319,-1.4314,-1.4316,-1.4314,-1.4319,-1.4323,-1.4324,-1.4333,-1.4329,-1.4341,-1.4335,-1.4343,-1.4343,-1.4346,-1.4345,-1.4346,-1.4359,-1.4341,-1.4309,-1.4307,-1.4347,-1.4347,-1.4347,0,-1.4296,-1.4294,-1.4287,-1.4288,-1.4297,-1.4294,-1.4297,-1.4302,-1.4302,-1.4304,-1.4304,-1.4305,-1.4306,-1.4307,-1.4316,-1.4324,-1.431,-1.4322,-1.4314,-1.4314,-1.431,-1.431,-1.4279,-1.4309,-1.4309,-1.4309,-1.4309,0,-1.4267,-1.426,-1.4275,-1.4271,-1.4263,-1.4275,-1.4267,-1.4273,-1.4277,-1.4275,-1.4287,-1.4285,-1.4297,-1.4296,-1.4304,-1.4299,-1.4299,-1.4303,-1.4305,-1.4302,-1.4302,-1.4302,-1.4304,-1.4308,-1.4309,-1.4309,-1.4309,0,-1.4235,-1.4245,-1.4239,-1.4248,-1.4251,-1.4245,-1.4253,-1.425,-1.4257,-1.4254,-1.4254,-1.4264,-1.4264,-1.4274,-1.4275,-1.4281,-1.4273,-1.4277,-1.4271,-1.4273,-1.4264,-1.4266,-1.4233,-1.423,-1.4261,-1.4261,-1.426,0,-1.4217,-1.4211,-1.4221,-1.4221,-1.4224,-1.4223,-1.4223,-1.4235,-1.4236,-1.4241,-1.4238,-1.4239,-1.424,-1.424,-1.4248,-1.4249,-1.4254,-1.4243,-1.4254,-1.4252,-1.4255,-1.4256,-1.4256,-1.424,-1.424,-1.4239,-1.4239,0,-1.4183,-1.4189,-1.419,-1.4193,-1.4193,-1.4196,-1.4199,-1.4198,-1.4212,-1.4211,-1.4212,-1.4213,-1.4216,-1.4217,-1.4221,-1.4225,-1.4234,-1.4236,-1.4234,-1.4231,-1.4229,-1.4231,-1.4266,-1.4236,-1.4236,-1.4237,-1.4237,-1.4237,-1.4158,-1.4155,-1.4162,-1.4163,-1.4167,-1.417,-1.4169,-1.4176,-1.4177,-1.418,-1.4187,-1.4187,-1.4193,-1.4199,-1.4203,-1.4203,-1.4209,-1.4206,-1.4205,-1.4205,-1.4204,-1.4228,-1.4203,-1.4204,-1.4204,-1.4204,-1.4204,0,-1.4127,-1.4132,-1.4133,-1.4138,-1.4139,-1.4149,-1.4154,-1.4154,-1.4154,-1.4159,-1.4161,-1.4162,-1.4164,-1.4173,-1.4176,-1.4175,-1.418,-1.4175,-1.4176,-1.4177,-1.4198,-1.4199,-1.4172,-1.4172,-1.4172,-1.4172,-1.4172,-1.4172,-1.4111,-1.4106,-1.4113,-1.4111,-1.4117,-1.4117,-1.412,-1.4123,-1.4128,-1.4129,-1.4131,-1.4137,-1.4144,-1.4148,-1.4151,-1.4153,-1.4154,-1.4149,-1.4153,-1.4172,-1.4175,-1.4178,-1.418,-1.4149,-1.4149,-1.4133,-1.4133,-1.4132]}]]